Location: Dehesa de la Cepeda
(40.6574°N, 4.3013°W)
Time: 02:54:05
(UTC+00:00)

Courier 1B - Pass Details

Date: 10 August 2021
Orbit: 963 x 1209 km, 28.3° (Epoch: 17 September)

Event Time Altitude Azimuth Distance (km) Brightness Sun altitude
Rises 18:07:00 0° 254° (WSW) 4,013 12.0 12.8°
Reaches altitude 10° 18:10:06 10° 245° (WSW) 3,081 11.2 12.2°
Maximum altitude 18:16:40 31° 186° (S) 1,943 9.2 11.0°
Drops below altitude 10° 18:23:22 10° 127° (SE) 3,140 9.6 9.8°
Sets 18:26:34 0° 118° (ESE) 4,100 10.1 9.2°
